Gallivare, Sweden

11:23 PM CET on March 25, 2017 (GMT +0100)
Gallivare

Weather History for ESNG - May, 2014

Change the Weather History Date:

Monday, May 12, 2014

  Actual Average Record
Temperature  
Mean Temperature 39 °F -  
Max Temperature 45 °F - - ()
Min Temperature 33 °F - - ()
Degree Days  
Heating Degree Days 26    
Moisture  
Dew Point 34 °F    
Average Humidity 79    
Maximum Humidity 93    
Minimum Humidity 58    
Precipitation  
Precipitation 0.08 in - - ()
Sea Level Pressure  
Sea Level Pressure 29.61 in    
Wind  
Wind Speed 3 mph ()    
Max Wind Speed 6 mph    
Max Gust Speed -    
Visibility 6.3 miles    
Events Rain , Snow    
T = Trace of Precipitation, MM = Missing Value Source: Averaged Metar Reports

Daily Weather History Graph

Daily Weather History Graph

Search for Another Location

Airport or City:

Trip Planner

Search our weather history database for the weather conditions in past years. The results will help you decide how hot, cold, wet, or windy it might be!

Date:

Astronomy

May. 12, 2014 Rise Set
Actual Time 2:55 AM CEST 10:15 PM CEST
Civil Twilight 1:06 AM CEST 12:01 AM CEST
Nautical Twilight Sun does not rise Sun does not rise
Astronomical Twilight Sun does not rise Sun does not rise
Moon 6:31 PM CEST (5/12) 3:03 AM CEST (5/12)
Length of Visible Light 22h 55m
Length of Day
19h 19m
Waxing Gibbous, 93% of the Moon is Illuminated
May 12
Waxing Gibbous
May 14
Full
May 21
Last Quarter
May 28
New
Jun 5
First Quarter

Hourly Weather History & Observations

Time (CEST) Temp. Windchill Dew Point Humidity Pressure Visibility Wind Dir Wind Speed Gust Speed Precip Events Conditions
12:20 AM 33.8 °F - 26.6 °F 75% 29.53 in 6.2 mi SSE 2.3 mph - N/A   Mostly Cloudy
12:50 AM 35.6 °F - 26.6 °F 70% 29.53 in 6.2 mi Calm Calm - N/A   Overcast
1:20 AM 35.6 °F - 28.4 °F 75% 29.53 in 6.2 mi Calm Calm - N/A   Overcast
1:50 AM 33.8 °F - 26.6 °F 75% 29.53 in 6.2 mi NNW 2.3 mph - N/A   Mostly Cloudy
2:00 AM 37 °F - 28 °F 58% 29.58 in 31 mi ENE 2.2 mph - -  
2:20 AM 33.8 °F - 28.4 °F 81% 29.53 in 6.2 mi Calm Calm - N/A   Mostly Cloudy
2:50 AM 33.8 °F - 28.4 °F 81% 29.53 in 6.2 mi Variable 2.3 mph - N/A   Overcast
3:20 AM 33.8 °F 30.8 °F 28.4 °F 81% 29.53 in 6.2 mi SSW 3.5 mph - N/A   Mostly Cloudy
3:50 AM 33.8 °F - 28.4 °F 81% 29.53 in 6.2 mi NW 2.3 mph - N/A   Mostly Cloudy
4:20 AM 35.6 °F - 28.4 °F 75% 29.53 in 6.2 mi SSW 2.3 mph - N/A   Partly Cloudy
4:50 AM 35.6 °F - 28.4 °F 75% 29.53 in 6.2 mi NNW 2.3 mph - N/A Snow Light Snow
5:00 AM 36 °F - 30 °F 70% 29.60 in 31 mi NNE 4.5 mph - -  
5:20 AM 35.6 °F 32.8 °F 28.4 °F 75% 29.56 in 6.2 mi NNW 3.5 mph - N/A   Mostly Cloudy
5:50 AM 37.4 °F 34.9 °F 30.2 °F 75% 29.56 in 6.2 mi Variable 3.5 mph - N/A Rain , Snow Light Rain
6:20 AM 37.4 °F - 30.2 °F 75% 29.56 in 6.2 mi Variable 1.2 mph - N/A   Scattered Clouds
6:50 AM 37.4 °F - 30.2 °F 75% 29.56 in 6.2 mi Variable 2.3 mph - N/A   Mostly Cloudy
7:20 AM 37.4 °F - 30.2 °F 75% 29.56 in 6.2 mi Variable 2.3 mph - N/A   Light Drizzle
8:00 AM 36 °F - 32 °F 81% 29.63 in 11 mi ENE 2.2 mph - - Rain Light Rain
8:20 AM 37.4 °F 32.8 °F 32.0 °F 81% 29.56 in 6.2 mi ESE 5.8 mph - N/A   Light Drizzle
8:50 AM 37.4 °F 32.8 °F 32.0 °F 81% 29.59 in 6.2 mi East 5.8 mph - N/A   Light Drizzle
9:20 AM 37.4 °F 33.8 °F 33.8 °F 87% 29.59 in 6.2 mi ENE 4.6 mph - N/A Rain Light Rain
9:50 AM 37.4 °F 33.8 °F 33.8 °F 87% 29.59 in 6.2 mi East 4.6 mph - N/A   Drizzle
10:20 AM 37.4 °F 33.8 °F 33.8 °F 87% 29.62 in 6.2 mi East 4.6 mph - N/A Rain Light Rain
11:00 AM 37 °F - 35 °F 92% 29.67 in 7 mi ESE 2.2 mph - - Rain Light Rain
11:20 AM 37.4 °F 34.9 °F 35.6 °F 93% 29.62 in 6.2 mi Variable 3.5 mph - N/A Rain Light Rain
11:50 AM 39.2 °F - 35.6 °F 87% 29.62 in 6.2 mi SSW 2.3 mph - N/A   Light Drizzle
12:20 PM 39.2 °F - 35.6 °F 87% 29.62 in 6.2 mi Variable 2.3 mph - N/A   Drizzle
12:50 PM 41.0 °F 39.0 °F 37.4 °F 87% 29.62 in 6.2 mi NNE 3.5 mph - N/A   Drizzle
1:20 PM 41.0 °F - 37.4 °F 87% 29.62 in 6.2 mi Variable 1.2 mph - N/A   Mostly Cloudy
1:50 PM 42.8 °F - 37.4 °F 81% 29.65 in 6.2 mi NNW 1.2 mph - N/A   Scattered Clouds
2:00 PM 42 °F - 39 °F 83% 29.68 in 31 mi NE 2.2 mph - -   Clear
2:20 PM 44.6 °F 43.1 °F 39.2 °F 81% 29.65 in 6.2 mi Variable 3.5 mph - N/A   Mostly Cloudy
2:50 PM 44.6 °F 42.2 °F 37.4 °F 76% 29.65 in 6.2 mi NW 4.6 mph - N/A   Mostly Cloudy
3:20 PM 44.6 °F 41.4 °F 37.4 °F 76% 29.65 in 6.2 mi WNW 5.8 mph - N/A   Mostly Cloudy
3:50 PM 44.6 °F 41.4 °F 37.4 °F 76% 29.65 in 6.2 mi WNW 5.8 mph - N/A   Mostly Cloudy
4:50 PM 46.4 °F 43.5 °F 37.4 °F 71% 29.65 in 6.2 mi NW 5.8 mph - N/A   Mostly Cloudy
5:00 PM 44 °F - 39 °F 76% 29.69 in 31 mi NNE 2.2 mph - -  
5:20 PM 46.4 °F 44.3 °F 37.4 °F 71% 29.65 in 6.2 mi WNW 4.6 mph - N/A   Mostly Cloudy
5:50 PM 46.4 °F 43.5 °F 37.4 °F 71% 29.65 in 6.2 mi WNW 5.8 mph - N/A   Mostly Cloudy
6:20 PM 46.4 °F 44.3 °F 37.4 °F 71% 29.65 in 6.2 mi WNW 4.6 mph - N/A   Mostly Cloudy
6:50 PM 46.4 °F - 37.4 °F 71% 29.65 in 6.2 mi Variable 2.3 mph - N/A   Mostly Cloudy
7:20 PM 44.6 °F 41.4 °F 37.4 °F 76% 29.65 in 6.2 mi NW 5.8 mph - N/A   Mostly Cloudy
7:50 PM 44.6 °F 41.4 °F 37.4 °F 76% 29.65 in 6.2 mi NW 5.8 mph - N/A   Mostly Cloudy
8:00 PM 42 °F - 37 °F 75% 29.70 in 31 mi WSW 2.2 mph - -  
8:20 PM 44.6 °F 41.4 °F 37.4 °F 76% 29.65 in - WNW 5.8 mph - N/A   Clear
8:50 PM 42.8 °F 40.1 °F 37.4 °F 81% 29.68 in 6.2 mi NW 4.6 mph - N/A   Mostly Cloudy
9:50 PM 42.8 °F 39.3 °F 37.4 °F 81% 29.68 in - NW 5.8 mph - N/A   Clear
10:20 PM 41.0 °F 39.0 °F 35.6 °F 81% 29.68 in 6.2 mi Variable 3.5 mph - N/A   Mostly Cloudy
10:50 PM 41.0 °F 38.0 °F 35.6 °F 81% 29.68 in 6.2 mi NW 4.6 mph - N/A   Mostly Cloudy
11:00 PM 37 °F - 35 °F 90% 29.74 in 31 mi Calm Calm - -  
11:20 PM 39.2 °F 37.0 °F 35.6 °F 87% 29.68 in 6.2 mi NW 3.5 mph - N/A   Mostly Cloudy
11:50 PM 39.2 °F 37.0 °F 35.6 °F 87% 29.68 in 6.2 mi WNW 3.5 mph - N/A   Mostly Cloudy